timestamp,wind_dir_avg,wind_spd_avg,wind_spd_max_dir,wind_spd_gust,battery_voltage,lat,long
2023-08-08 00:04:00+00:00,19.0,8.25,18.0,9.04,12.73,47.59359,-54.27349
2023-08-08 00:14:00+00:00,11.0,8.15,11.0,9.18,12.41,47.59359,-54.27349
2023-08-08 00:24:00+00:00,3.0,8.96,6.0,9.88,12.41,47.59359,-54.27349
2023-08-08 00:34:00+00:00,1.0,9.29,1.0,10.46,12.41,47.59359,-54.27349
2023-08-08 00:44:00+00:00,3.0,10.04,3.0,11.03,12.41,47.59359,-54.27349
2023-08-08 00:54:00+00:00,0.0,9.08,357.0,10.66,12.41,47.59359,-54.27349
2023-08-08 01:04:00+00:00,2.0,10.49,1.0,11.25,12.41,47.59359,-54.27349
2023-08-08 01:14:00+00:00,1.0,9.91,5.0,11.23,12.41,47.59359,-54.27349
2023-08-08 01:24:00+00:00,2.0,8.93,358.0,9.88,12.41,47.59359,-54.27349
2023-08-08 01:34:00+00:00,356.0,10.13,359.0,11.63,12.41,47.59359,-54.27349
2023-08-08 01:44:00+00:00,358.0,9.93,355.0,11.89,12.41,47.59359,-54.27349
2023-08-08 01:54:00+00:00,1.0,9.74,1.0,10.85,12.41,47.59359,-54.27349
2023-08-08 02:04:00+00:00,2.0,10.41,2.0,12.62,12.41,47.59359,-54.27349
2023-08-08 02:14:01+00:00,6.0,10.68,14.0,13.07,12.41,47.59359,-54.27349
2023-08-08 02:24:01+00:00,3.0,11.03,5.0,12.84,12.41,47.59359,-54.27349
2023-08-08 02:34:01+00:00,7.0,10.27,14.0,12.25,12.41,47.59359,-54.27349
2023-08-08 02:44:01+00:00,7.0,9.74,9.0,11.49,12.41,47.59359,-54.27349
2023-08-08 02:54:01+00:00,5.0,10.22,4.0,12.36,12.41,47.59359,-54.27349
2023-08-08 03:04:01+00:00,5.0,9.95,6.0,12.45,12.41,47.59359,-54.27349
2023-08-08 03:14:00+00:00,4.0,11.42,6.0,13.18,12.41,47.59359,-54.27349
2023-08-08 03:24:00+00:00,8.0,9.28,359.0,10.39,12.41,47.59359,-54.27349
2023-08-08 03:34:00+00:00,11.0,9.87,15.0,11.05,12.41,47.59359,-54.27349
2023-08-08 03:44:00+00:00,17.0,11.86,28.0,12.96,12.41,47.59359,-54.27349
2023-08-08 03:54:00+00:00,17.0,9.25,14.0,10.71,12.41,47.59359,-54.27349
2023-08-08 04:04:00+00:00,21.0,10.44,22.0,12.35,12.41,47.59359,-54.27349
2023-08-08 04:14:00+00:00,14.0,9.98,16.0,11.55,12.33,47.59359,-54.27349
2023-08-08 04:24:00+00:00,11.0,8.59,12.0,9.68,12.33,47.59359,-54.27349
2023-08-08 04:34:00+00:00,7.0,8.25,10.0,9.76,12.33,47.59359,-54.27349
2023-08-08 04:44:00+00:00,1.0,9.61,1.0,11.55,12.33,47.59359,-54.27349
2023-08-08 04:54:00+00:00,357.0,9.58,2.0,10.9,12.33,47.59359,-54.27349
2023-08-08 05:04:00+00:00,354.0,9.33,354.0,10.81,12.33,47.59359,-54.27349
2023-08-08 05:14:00+00:00,0.0,9.25,0.0,10.81,12.41,47.59359,-54.27349
2023-08-08 05:24:00+00:00,357.0,9.6,356.0,10.82,12.41,47.59359,-54.27349
2023-08-08 05:34:00+00:00,4.0,9.23,1.0,10.57,12.41,47.59359,-54.27349
2023-08-08 05:44:00+00:00,3.0,9.61,3.0,10.68,12.41,47.59359,-54.27349
2023-08-08 05:54:00+00:00,10.0,8.65,12.0,10.17,12.41,47.59359,-54.27349
2023-08-08 06:04:00+00:00,9.0,8.05,11.0,9.57,12.41,47.59359,-54.27349
2023-08-08 06:14:01+00:00,4.0,9.86,2.0,11.27,12.33,47.59359,-54.27349
2023-08-08 06:24:01+00:00,10.0,8.01,14.0,9.6,12.33,47.59359,-54.27349
2023-08-08 06:34:01+00:00,3.0,8.96,4.0,9.89,12.33,47.59359,-54.27349
2023-08-08 06:44:01+00:00,11.0,8.19,17.0,10.38,12.33,47.59359,-54.27349
2023-08-08 06:54:01+00:00,359.0,7.94,354.0,8.94,12.33,47.59359,-54.27349
2023-08-08 07:04:01+00:00,0.0,8.1,1.0,10.18,12.33,47.59359,-54.27349
2023-08-08 07:14:00+00:00,0.0,7.53,353.0,9.65,12.33,47.59359,-54.27349
2023-08-08 07:24:00+00:00,6.0,8.5,3.0,9.5,12.33,47.59359,-54.27349
2023-08-08 07:34:00+00:00,9.0,7.94,2.0,9.99,12.33,47.59359,-54.27349
2023-08-08 07:44:00+00:00,4.0,8.47,12.0,9.39,12.33,47.59359,-54.27349
2023-08-08 07:54:00+00:00,20.0,9.48,23.0,10.84,12.33,47.59359,-54.27349
2023-08-08 08:04:00+00:00,16.0,8.83,14.0,10.14,12.33,47.59359,-54.27349
2023-08-08 08:14:00+00:00,27.0,10.17,29.0,11.65,12.33,47.59359,-54.27349
2023-08-08 08:24:00+00:00,27.0,9.79,23.0,11.8,12.33,47.59359,-54.27349
2023-08-08 08:34:00+00:00,14.0,8.16,24.0,9.36,12.33,47.59359,-54.27349
2023-08-08 08:44:00+00:00,12.0,7.81,12.0,8.97,12.33,47.59359,-54.27349
2023-08-08 08:54:00+00:00,18.0,9.26,17.0,10.19,12.33,47.59359,-54.27349
2023-08-08 09:04:00+00:00,13.0,9.0,19.0,10.46,12.33,47.59359,-54.27349
2023-08-08 09:14:00+00:00,7.0,8.13,9.0,9.0,12.25,47.59359,-54.27349
2023-08-08 09:24:00+00:00,4.0,8.44,1.0,9.79,12.25,47.59359,-54.27349
2023-08-08 09:34:00+00:00,4.0,8.64,5.0,10.07,12.25,47.59359,-54.27349
2023-08-08 09:44:00+00:00,10.0,7.8,18.0,9.75,12.25,47.59359,-54.27349
2023-08-08 09:54:00+00:00,7.0,6.84,5.0,8.01,12.25,47.59359,-54.27349
2023-08-08 10:04:00+00:00,8.0,6.75,8.0,7.89,12.25,47.59359,-54.27349
2023-08-08 10:14:00+00:00,10.0,6.13,5.0,8.38,12.41,47.59359,-54.27349
2023-08-08 10:24:00+00:00,5.0,7.43,358.0,8.96,12.41,47.59359,-54.27349
2023-08-08 10:34:00+00:00,15.0,8.41,14.0,9.21,12.41,47.59359,-54.27349
2023-08-08 10:44:00+00:00,17.0,6.52,22.0,7.48,12.41,47.59359,-54.27349
2023-08-08 10:54:00+00:00,5.0,7.37,5.0,8.52,12.41,47.59359,-54.27349
2023-08-08 11:04:00+00:00,14.0,8.64,17.0,10.46,12.41,47.59359,-54.27349
2023-08-08 11:14:00+00:00,12.0,8.19,14.0,9.21,12.89,47.59359,-54.27349
2023-08-08 11:24:00+00:00,19.0,9.42,18.0,10.27,12.89,47.59359,-54.27349
2023-08-08 11:34:00+00:00,20.0,7.86,17.0,9.05,12.89,47.59359,-54.27349
2023-08-08 11:44:00+00:00,12.0,8.93,12.0,9.84,12.89,47.59359,-54.27349
2023-08-08 11:54:00+00:00,7.0,7.79,10.0,9.15,12.89,47.59359,-54.27349
2023-08-08 12:04:00+00:00,15.0,9.53,15.0,10.46,12.89,47.59359,-54.27349
2023-08-08 12:14:00+00:00,17.0,8.69,17.0,9.56,13.76,47.59359,-54.27349
2023-08-08 12:24:00+00:00,16.0,8.86,14.0,10.27,13.76,47.59359,-54.27349
2023-08-08 12:34:00+00:00,29.0,9.93,36.0,11.37,13.76,47.59359,-54.27349
2023-08-08 12:44:00+00:00,26.0,10.06,26.0,11.1,13.76,47.59359,-54.27349
2023-08-08 12:54:00+00:00,26.0,8.99,34.0,10.01,13.76,47.59359,-54.27349
2023-08-08 13:04:00+00:00,31.0,9.0,32.0,10.51,13.76,47.59359,-54.27349
2023-08-08 13:14:00+00:00,27.0,8.71,35.0,10.39,13.68,47.59359,-54.27349
2023-08-08 13:24:00+00:00,22.0,8.48,22.0,9.34,13.68,47.59359,-54.27349
2023-08-08 13:34:00+00:00,32.0,8.34,27.0,9.25,13.68,47.59359,-54.27349
2023-08-08 13:44:00+00:00,31.0,8.06,30.0,9.03,13.68,47.59359,-54.27349
2023-08-08 13:54:00+00:00,32.0,6.53,33.0,7.5,13.68,47.59359,-54.27349
2023-08-08 14:04:00+00:00,33.0,6.22,35.0,6.95,13.68,47.59359,-54.27349
2023-08-08 14:14:01+00:00,41.0,6.87,54.0,7.51,13.68,47.59359,-54.27349
2023-08-08 14:24:01+00:00,39.0,7.68,33.0,8.63,13.68,47.59359,-54.27349
2023-08-08 14:34:01+00:00,36.0,6.79,39.0,7.5,13.68,47.59359,-54.27349
2023-08-08 14:44:01+00:00,35.0,6.53,34.0,7.42,13.68,47.59359,-54.27349
2023-08-08 14:54:01+00:00,29.0,7.19,26.0,8.0,13.68,47.59359,-54.27349
2023-08-08 15:04:01+00:00,40.0,4.49,37.0,5.44,13.68,47.59359,-54.27349
2023-08-08 15:14:00+00:00,39.0,4.18,39.0,4.69,13.68,47.59359,-54.27349
2023-08-08 15:24:00+00:00,35.0,4.63,36.0,5.87,13.68,47.59359,-54.27349
2023-08-08 15:34:00+00:00,36.0,4.49,37.0,5.26,13.68,47.59359,-54.27349
2023-08-08 15:44:00+00:00,40.0,4.81,41.0,5.51,13.68,47.59359,-54.27349
2023-08-08 15:54:00+00:00,56.0,4.47,55.0,4.95,13.68,47.59359,-54.27349
2023-08-08 16:04:00+00:00,51.0,4.56,41.0,5.54,13.68,47.59359,-54.27349
2023-08-08 16:14:00+00:00,49.0,3.96,53.0,4.33,13.68,47.59359,-54.27349
2023-08-08 16:24:00+00:00,54.0,4.83,54.0,5.23,13.68,47.59359,-54.27349
2023-08-08 16:34:00+00:00,55.0,4.02,56.0,4.7,13.68,47.59359,-54.27349
2023-08-08 16:44:00+00:00,65.0,4.47,67.0,5.03,13.68,47.59359,-54.27349
2023-08-08 16:54:00+00:00,57.0,4.73,54.0,5.15,13.68,47.59359,-54.27349
2023-08-08 17:04:00+00:00,71.0,4.1,73.0,4.51,13.68,47.59359,-54.27349
2023-08-08 17:14:00+00:00,67.0,4.09,63.0,4.57,13.84,47.59359,-54.27349
2023-08-08 17:24:00+00:00,49.0,3.91,51.0,4.29,13.84,47.59359,-54.27349
2023-08-08 17:34:00+00:00,69.0,3.55,68.0,4.24,13.84,47.59359,-54.27349
2023-08-08 17:44:00+00:00,63.0,3.69,59.0,4.31,13.84,47.59359,-54.27349
2023-08-08 17:54:00+00:00,70.0,3.7,70.0,4.17,13.84,47.59359,-54.27349
2023-08-08 18:04:00+00:00,67.0,3.48,66.0,3.8,13.84,47.59359,-54.27349
2023-08-08 18:14:00+00:00,63.0,3.09,67.0,4.53,13.68,47.59359,-54.27349
2023-08-08 18:24:00+00:00,67.0,3.62,66.0,4.13,13.68,47.59359,-54.27349
2023-08-08 18:34:00+00:00,68.0,3.41,59.0,4.35,13.68,47.59359,-54.27349
2023-08-08 18:44:00+00:00,70.0,3.53,68.0,4.6,13.68,47.59359,-54.27349
2023-08-08 18:54:00+00:00,69.0,2.45,62.0,3.17,13.68,47.59359,-54.27349
2023-08-08 19:04:00+00:00,85.0,2.28,91.0,2.89,13.68,47.59359,-54.27349
2023-08-08 19:14:00+00:00,66.0,3.37,66.0,3.83,13.76,47.59359,-54.27349
2023-08-08 19:24:00+00:00,66.0,2.56,71.0,2.95,13.76,47.59359,-54.27349
2023-08-08 19:34:00+00:00,62.0,3.05,64.0,3.77,13.76,47.59359,-54.27349
2023-08-08 19:44:00+00:00,66.0,2.22,68.0,2.87,13.76,47.59359,-54.27349
2023-08-08 19:54:00+00:00,73.0,1.74,90.0,2.64,13.76,47.59359,-54.27349
2023-08-08 20:04:00+00:00,54.0,1.97,56.0,2.26,13.76,47.59359,-54.27349
2023-08-08 20:14:00+00:00,44.0,1.69,40.0,1.94,13.68,47.59359,-54.27349
2023-08-08 20:24:00+00:00,48.0,1.28,48.0,1.64,13.68,47.59359,-54.27349
2023-08-08 20:34:00+00:00,45.0,1.46,41.0,1.72,13.68,47.59359,-54.27349
2023-08-08 20:44:00+00:00,18.0,1.15,22.0,1.4,13.68,47.59359,-54.27349
2023-08-08 20:54:00+00:00,45.0,0.79,40.0,1.04,13.68,47.59359,-54.27349
2023-08-08 21:04:00+00:00,40.0,1.48,36.0,1.8,13.68,47.59359,-54.27349
2023-08-08 21:14:00+00:00,28.0,1.02,28.0,1.27,13.37,47.59359,-54.27349
2023-08-08 21:24:00+00:00,352.0,0.9,347.0,1.14,13.37,47.59359,-54.27349
2023-08-08 21:34:00+00:00,27.0,1.15,29.0,1.35,13.37,47.59359,-54.27349
2023-08-08 21:44:00+00:00,62.0,1.61,62.0,1.85,13.37,47.59359,-54.27349
2023-08-08 21:54:00+00:00,51.0,1.25,47.0,1.63,13.37,47.59359,-54.27349
2023-08-08 22:04:00+00:00,32.0,1.2,38.0,1.39,13.37,47.59359,-54.27349
2023-08-08 22:14:00+00:00,42.0,1.36,39.0,1.56,13.29,47.59359,-54.27349
2023-08-08 22:24:00+00:00,52.0,1.17,55.0,1.31,13.29,47.59359,-54.27349
2023-08-08 22:34:00+00:00,63.0,1.49,48.0,1.73,13.29,47.59359,-54.27349
2023-08-08 22:44:00+00:00,100.0,1.37,102.0,1.96,13.29,47.59359,-54.27349
2023-08-08 22:54:00+00:00,83.0,1.93,71.0,2.65,13.29,47.59359,-54.27349
2023-08-08 23:04:00+00:00,72.0,1.48,53.0,2.03,13.29,47.59359,-54.27349
2023-08-08 23:14:00+00:00,112.0,1.94,110.0,2.49,12.73,47.59359,-54.27349
2023-08-08 23:24:00+00:00,132.0,2.07,132.0,2.59,12.73,47.59359,-54.27349
2023-08-08 23:34:00+00:00,164.0,3.49,163.0,3.68,12.73,47.59359,-54.27349
2023-08-08 23:44:00+00:00,158.0,3.25,155.0,3.93,12.73,47.59359,-54.27349
2023-08-08 23:54:00+00:00,142.0,3.89,142.0,4.37,12.73,47.59359,-54.27349
